Location: Tucson
(32.2217°N, 110.9265°W)
Time: 14:08:55
(UTC-07:00)

Envisat - Visible Passes

Search period start: 23 June 2018 00:00
Search period end: 03 July 2018 00:00
Orbit: 764 x 766 km, 98.2° (Epoch: 23 June)

Date Brightness Start Highest point End Pass type
(mag) Time Alt. Az. Time Alt. Az. Time Alt. Az.
24 Jun 5.5 20:51:32 10° SW 20:54:58 18° W 20:58:24 10° NW visible
25 Jun 4.1 20:13:14 10° S 20:18:04 44° W 20:22:54 10° NNW visible
27 Jun 5.2 20:39:43 10° SSW 20:43:44 24° W 20:47:47 10° NW visible
28 Jun 3.7 20:01:54 10° S 20:06:53 58° W 20:11:53 10° NNW visible
29 Jun 5.7 21:07:29 10° WSW 21:09:30 12° W 21:11:31 10° WNW visible
30 Jun 4.8 20:28:05 10° SSW 20:32:31 30° W 20:36:59 10° NW visible
02 Jul 5.6 20:55:08 10° SW 20:58:15 16° W 21:01:23 10° NW visible
